| time (UTC) | temp F | wind direction | speed knots | gust knots | rain 1hr in | rain 24hr in | rain mn in | humidity % | barometer mb |
| 20260507041533 | -1 | 308 | 2.6 | 2.6 | 0.00 | 0.39 | 0.00 | 10 | 1017.5 |
| 20260507040536 | -1 | 242 | 4.3 | 4.3 | 0.00 | 0.41 | 0.00 | 10 | 1017.4 |
| 20260507035602 | -1 | 232 | 4.3 | 5.2 | 0.00 | 0.43 | 0.00 | 10 | 1017.4 |
| 20260507034538 | -1 | 328 | 3.5 | 4.3 | 0.00 | 0.45 | 0.00 | 10 | 1017.3 |
| 20260507033536 | -1 | 270 | 2.6 | 2.6 | 0.00 | 0.49 | 0.00 | 10 | 1017.2 |
| 20260507032602 | -1 | 257 | 1.7 | 1.7 | 0.00 | 0.51 | 0.00 | 10 | 1017.2 |
| 20260507031540 | -1 | 270 | 1.7 | 1.7 | 0.00 | 0.51 | 0.00 | 10 | 1017.2 |
| 20260507030542 | -1 | 270 | 1.7 | 1.7 | 0.00 | 0.51 | 0.00 | 10 | 1017.2 |
| 20260507025542 | -1 | 277 | 4.3 | 7.0 | 0.00 | 0.51 | 0.00 | 10 | 1017.2 |
| 20260507024517 | -1 | 232 | 2.6 | 3.5 | 0.00 | 0.51 | 0.00 | 10 | 1017.1 |
| 20260507023609 | -1 | 214 | 1.7 | 1.7 | 0.00 | 0.51 | 0.00 | 10 | 1017.2 |
| 20260507022516 | -1 | 225 | 1.7 | 1.7 | 0.00 | 0.51 | 0.00 | 10 | 1017.2 |
| 20260507021547 | -1 | 261 | 2.6 | 3.5 | 0.00 | 0.51 | 0.00 | 10 | 1017.4 |
| 20260507020544 | -1 | 225 | 1.7 | 1.7 | 0.00 | 0.51 | 0.00 | 10 | 1017.5 |
| 20260507015543 | -1 | 229 | 1.7 | 4.3 | 0.00 | 0.51 | 0.00 | 10 | 1017.4 |
| 20260507014519 | -1 | 266 | 1.7 | 2.6 | 0.00 | 0.51 | 0.00 | 10 | 1017.2 |
| 20260507013520 | -1 | 270 | 2.6 | 2.6 | 0.00 | 0.51 | 0.00 | 10 | 1017.3 |
| 20260507012526 | -1 | 245 | 1.7 | 1.7 | 0.00 | 0.51 | 0.00 | 10 | 1017.1 |
| 20260507011529 | -1 | 237 | 2.6 | 2.6 | 0.00 | 0.51 | 0.00 | 10 | 1017.1 |
| 20260507005531 | -1 | 205 | 1.7 | 2.6 | 0.00 | 0.51 | 0.00 | 10 | 1016.9 |
| 20260507004538 | -1 | 216 | 3.5 | 5.2 | 0.00 | 0.53 | 0.00 | 10 | 1016.9 |
| 20260507003600 | -1 | 270 | 1.7 | 3.5 | 0.00 | 0.53 | 0.00 | 10 | 1016.9 |
| 20260507002545 | -1 | 231 | 1.7 | 3.5 | 0.00 | 0.53 | 0.00 | 10 | 1016.8 |
| 20260507001545 | -1 | 242 | 1.7 | 2.6 | 0.00 | 0.53 | 0.00 | 10 | 1016.7 |
| 20260507000544 | -1 | 218 | 2.6 | 2.6 | 0.00 | 0.53 | 0.00 | 10 | 1016.6 |
| 20260506235517 | 47 | 243 | 2.6 | 3.5 | 0.00 | 0.53 | 0.00 | 79 | 1016.6 |
| 20260506234601 | 48 | 254 | 1.7 | 1.7 | 0.00 | 0.53 | 0.00 | 87 | 1016.6 |
| 20260506233524 | 48 | 270 | 2.6 | 2.6 | 0.00 | 0.53 | 0.00 | 87 | 1016.6 |
| 20260506232518 | 48 | 270 | 0.9 | 1.7 | 0.00 | 0.53 | 0.00 | 87 | 1016.6 |
| 20260506231524 | 48 | 257 | 0.9 | 1.7 | 0.00 | 0.53 | 0.00 | 87 | 1016.6 |
| 20260506230550 | 49 | 180 | 1.7 | 3.5 | 0.00 | 0.53 | 0.00 | 86 | 1016.7 |
| 20260506225534 | 49 | 208 | 0.9 | 1.7 | 0.00 | 0.53 | 0.00 | 86 | 1016.8 |
| 20260506224557 | 49 | 239 | 2.6 | 4.3 | 0.00 | 0.53 | 0.00 | 86 | 1016.7 |
| 20260506223549 | 49 | 242 | 0.9 | 2.6 | 0.00 | 0.53 | 0.00 | 86 | 1016.7 |
| 20260506222520 | 50 | 244 | 1.7 | 1.7 | 0.00 | 0.53 | 0.00 | 85 | 1016.5 |
| 20260506221523 | 50 | 238 | 0.9 | 0.9 | 0.00 | 0.53 | 0.00 | 85 | 1016.4 |
| 20260506220523 | 50 | 270 | 0.9 | 1.7 | 0.00 | 0.53 | 0.00 | 85 | 1016.4 |
| 20260506215519 | 50 | 257 | 0.9 | 1.7 | 0.00 | 0.53 | 0.53 | 85 | 1016.2 |
| 20260506214522 | 50 | 287 | 1.7 | 1.7 | 0.00 | 0.53 | 0.53 | 85 | 1016.2 |
| 20260506213527 | 51 | 288 | 0.9 | 1.7 | 0.00 | 0.53 | 0.53 | 85 | 1016.2 |
| 20260506212526 | 51 | 245 | 1.7 | 1.7 | 0.00 | 0.53 | 0.53 | 85 | 1016.2 |
| 20260506211525 | 51 | 270 | 0.9 | 1.7 | 0.00 | 0.53 | 0.53 | 85 | 1016.0 |
| 20260506210600 | 52 | 270 | 1.7 | 1.7 | 0.00 | 0.53 | 0.53 | 84 | 1015.9 |
| 20260506205521 | 52 | 241 | 1.7 | 1.7 | 0.00 | 0.53 | 0.53 | 84 | 1015.8 |
| 20260506204525 | 52 | 0.0 | 0.0 | 0.00 | 0.53 | 0.53 | 83 | 1015.9 | |
| 20260506203646 | 53 | 270 | 0.9 | 1.7 | 0.00 | 0.53 | 0.53 | 83 | 1015.8 |
| 20260506202521 | 53 | 180 | 0.9 | 1.7 | 0.00 | 0.53 | 0.53 | 82 | 1015.7 |
| 20260506201519 | 53 | 248 | 0.9 | 1.7 | 0.00 | 0.53 | 0.53 | 82 | 1015.6 |
| 20260506200525 | 54 | 0.0 | 0.0 | 0.00 | 0.53 | 0.53 | 81 | 1015.3 | |
| 20260506195638 | 54 | 172 | 0.9 | 1.7 | 0.00 | 0.53 | 0.53 | 81 | 1015.0 |
| 20260506194552 | 55 | 0 | 0.0 | 0.9 | 0.00 | 0.53 | 0.53 | 80 | 1014.7 |
| 20260506193535 | 55 | 270 | 0.0 | 0.9 | 0.00 | 0.53 | 0.53 | 79 | 1014.4 |
| 20260506192533 | 56 | 0.0 | 0.0 | 0.00 | 0.53 | 0.53 | 79 | 1014.3 | |
| 20260506191541 | 56 | 0.0 | 0.0 | 0.00 | 0.53 | 0.53 | 79 | 1014.0 | |
| 20260506190542 | 57 | 0 | 0.0 | 1.7 | 0.00 | 0.53 | 0.53 | 78 | 1013.9 |
| 20260506185541 | 57 | 0.0 | 0.0 | 0.00 | 0.53 | 0.53 | 78 | 1013.6 | |
| 20260506184536 | 58 | 23 | 0.9 | 1.7 | 0.00 | 0.53 | 0.53 | 78 | 1013.4 |
| 20260506183528 | 59 | 0.0 | 0.0 | 0.00 | 0.53 | 0.53 | 76 | 1013.3 | |
| 20260506182522 | 59 | 0 | 0.9 | 1.7 | 0.00 | 0.53 | 0.53 | 74 | 1012.9 |
| 20260506181522 | 61 | 23 | 0.9 | 1.7 | 0.00 | 0.53 | 0.53 | 73 | 1012.5 |
| 20260506180522 | 62 | 0.0 | 0.0 | 0.00 | 0.53 | 0.53 | 70 | 1012.3 | |
| 20260506175545 | 64 | 14 | 0.9 | 1.7 | 0.00 | 0.53 | 0.53 | 69 | 1012.2 |
| 20260506174516 | 65 | 23 | 0.0 | 0.9 | 0.00 | 0.53 | 0.53 | 68 | 1012.1 |
| 20260506173604 | 66 | 0.0 | 0.0 | 0.00 | 0.53 | 0.53 | 67 | 1011.9 | |
| 20260506172544 | 67 | 0.0 | 0.0 | 0.00 | 0.53 | 0.53 | 66 | 1011.7 | |
| 20260506171547 | 68 | 31 | 0.9 | 0.9 | 0.00 | 0.53 | 0.53 | 65 | 1011.7 |
| 20260506170544 | 68 | 0.0 | 0.0 | 0.00 | 0.53 | 0.53 | 66 | 1011.7 | |
| 20260506165545 | 68 | 23 | 0.9 | 1.7 | 0.00 | 0.53 | 0.53 | 66 | 1011.6 |
| 20260506164519 | 67 | 0.0 | 0.0 | 0.00 | 0.53 | 0.53 | 68 | 1011.6 | |
| 20260506163520 | 66 | 23 | 0.0 | 0.9 | 0.00 | 0.53 | 0.53 | 67 | 1011.5 |
| 20260506162537 | 66 | 23 | 0.0 | 0.9 | 0.00 | 0.53 | 0.53 | 67 | 1011.5 |
| 20260506161519 | 67 | 0.0 | 0.0 | 0.00 | 0.53 | 0.53 | 66 | 1011.6 | |
| 20260506160544 | 67 | 180 | 0.0 | 0.9 | 0.00 | 0.53 | 0.53 | 65 | 1011.5 |
| 20260506155524 | 67 | 46 | 0.9 | 1.7 | 0.00 | 0.53 | 0.53 | 67 | 1011.6 |
| 20260506154522 | 66 | 35 | 1.7 | 2.6 | 0.00 | 0.53 | 0.53 | 67 | 1011.6 |
| 20260506153524 | 65 | 23 | 0.9 | 1.7 | 0.00 | 0.53 | 0.53 | 67 | 1011.6 |
| 20260506152525 | 66 | 23 | 0.9 | 1.7 | 0.00 | 0.53 | 0.53 | 68 | 1011.6 |
| 20260506151516 | 66 | 23 | 0.9 | 1.7 | 0.00 | 0.53 | 0.53 | 67 | 1011.7 |
| 20260506150548 | 66 | 0.0 | 0.0 | 0.00 | 0.53 | 0.53 | 67 | 1011.6 | |
| 20260506145539 | 66 | 70 | 1.7 | 1.7 | 0.00 | 0.53 | 0.53 | 66 | 1011.5 |
| 20260506144544 | 67 | 23 | 0.9 | 1.7 | 0.00 | 0.53 | 0.53 | 65 | 1011.6 |
| 20260506143542 | 68 | 86 | 2.6 | 3.5 | 0.00 | 0.53 | 0.53 | 64 | 1011.5 |
| 20260506142537 | 69 | 23 | 1.7 | 2.6 | 0.00 | 0.53 | 0.53 | 65 | 1011.6 |
| 20260506141559 | 68 | 158 | 0.0 | 0.9 | 0.00 | 0.53 | 0.53 | 67 | 1011.8 |
| 20260506140542 | 67 | 61 | 2.6 | 2.6 | 0.00 | 0.53 | 0.53 | 67 | 1011.8 |
| 20260506135601 | 66 | 23 | 3.5 | 3.5 | 0.00 | 0.53 | 0.53 | 68 | 1011.9 |
| 20260506134537 | 66 | 23 | 2.6 | 3.5 | 0.00 | 0.53 | 0.53 | 69 | 1012.0 |
| 20260506133518 | 65 | 17 | 1.7 | 1.7 | 0.00 | 0.53 | 0.53 | 68 | 1012.1 |
| 20260506132524 | 66 | 23 | 0.0 | 1.7 | 0.00 | 0.53 | 0.53 | 67 | 1012.2 |
| 20260506131529 | 67 | 23 | 0.9 | 1.7 | 0.00 | 0.53 | 0.53 | 69 | 1012.2 |
| 20260506130528 | 65 | 23 | 1.7 | 3.5 | 0.00 | 0.53 | 0.53 | 71 | 1012.2 |
| 20260506125530 | 65 | 23 | 1.7 | 2.6 | 0.00 | 0.53 | 0.53 | 70 | 1012.1 |
| 20260506124534 | 65 | 23 | 0.9 | 0.9 | 0.00 | 0.53 | 0.53 | 70 | 1012.2 |
| 20260506123543 | 65 | 97 | 1.7 | 2.6 | 0.00 | 0.53 | 0.53 | 70 | 1012.1 |
| 20260506122544 | 65 | 23 | 4.3 | 6.1 | 0.00 | 0.53 | 0.53 | 68 | 1012.0 |
| 20260506121535 | 66 | 23 | 3.5 | 5.2 | 0.00 | 0.53 | 0.53 | 67 | 1012.0 |
| 20260506120533 | 67 | 23 | 1.7 | 1.7 | 0.00 | 0.53 | 0.53 | 66 | 1012.0 |
| 20260506115552 | 69 | 23 | 3.5 | 5.2 | 0.00 | 0.53 | 0.53 | 65 | 1012.0 |
| 20260506114533 | 68 | 35 | 1.7 | 3.5 | 0.00 | 0.53 | 0.53 | 67 | 1012.1 |
| 20260506113533 | 68 | 80 | 1.7 | 4.3 | 0.00 | 0.53 | 0.53 | 68 | 1012.0 |
| 20260506112533 | 68 | 70 | 1.7 | 2.6 | 0.00 | 0.53 | 0.53 | 69 | 1012.1 |
| 20260506111535 | 67 | 24 | 2.6 | 3.5 | 0.00 | 0.53 | 0.53 | 71 | 1012.1 |
| 20260506110535 | 66 | 44 | 2.6 | 5.2 | 0.00 | 0.53 | 0.53 | 74 | 1012.2 |
| 20260506105534 | 22 | 33 | 2.6 | 3.5 | 0.00 | 0.53 | 0.53 | 34 | 1012.4 |
| 20260506104531 | -1 | 23 | 2.6 | 5.2 | 0.00 | 0.53 | 0.53 | 10 | 1012.6 |
| 20260506103531 | -1 | 23 | 1.7 | 3.5 | 0.00 | 0.53 | 0.53 | 10 | 1012.7 |
| 20260506102523 | 98 | 23 | 3.5 | 4.3 | 0.00 | 0.53 | 0.53 | 10 | 1012.7 |
| 20260506101542 | 58 | 109 | 1.7 | 2.6 | 0.00 | 0.53 | 0.53 | 10 | 1012.6 |
| 20260506100531 | 23 | 23 | 0.9 | 1.7 | 0.00 | 0.53 | 0.53 | 46 | 1012.7 |
| 20260506095535 | 68 | 23 | 1.7 | 2.6 | 0.00 | 0.53 | 0.53 | 46 | 1012.7 |
| 20260506094537 | 31 | 75 | 0.9 | 2.6 | 0.00 | 0.53 | 0.53 | 59 | 1012.9 |
| 20260506093537 | 98 | 120 | 1.7 | 1.7 | 0.00 | 0.53 | 0.53 | 10 | 1012.9 |
| 20260506092537 | 98 | 23 | 0.9 | 1.7 | 0.00 | 0.53 | 0.53 | 10 | 1012.9 |
| 20260506091539 | 98 | 23 | 1.7 | 2.6 | 0.00 | 0.53 | 0.53 | 10 | 1013.0 |
| 20260506090536 | 98 | 62 | 1.7 | 2.6 | 0.00 | 0.53 | 0.53 | 10 | 1013.0 |
| 20260506085538 | 95 | 23 | 1.7 | 5.2 | 0.00 | 0.53 | 0.53 | 99 | 1012.9 |
| 20260506084559 | -18 | 113 | 2.6 | 3.5 | 0.00 | 0.53 | 0.53 | 99 | 1012.9 |
| 20260506083543 | 98 | 23 | 1.7 | 1.7 | 0.00 | 0.53 | 0.53 | 28 | 1012.8 |
| 20260506082544 | 98 | 158 | 0.9 | 1.7 | 0.00 | 0.53 | 0.53 | 10 | 1012.8 |
| 20260506081519 | -19 | 274 | 0.9 | 0.9 | 0.00 | 0.53 | 0.53 | 99 | 1012.7 |
| 20260506080519 | -18 | 225 | 0.9 | 1.7 | 0.00 | 0.53 | 0.53 | 99 | 1012.8 |
| 20260506072535 | 94 | 203 | 0.9 | 1.7 | 0.00 | 0.53 | 0.53 | 99 | 1013.0 |
| 20260506071604 | 98 | 0.0 | 0.0 | 0.00 | 0.53 | 0.53 | 10 | 1013.1 | |
| 20260506070545 | 98 | 209 | 0.9 | 2.6 | 0.00 | 0.53 | 0.53 | 10 | 1013.1 |
| 20260506061537 | 98 | 0.0 | 0.0 | 0.04 | 0.53 | 0.53 | 10 | 1013.7 | |
| 20260506060517 | 98 | 0.0 | 0.0 | 0.06 | 0.53 | 0.53 | 10 | 1013.7 | |
| 20260506050524 | 98 | 0.0 | 0.0 | 0.35 | 0.47 | 0.47 | 10 | 1013.8 | |
| 20260506044528 | 98 | 0.0 | 0.0 | 0.33 | 0.41 | 0.41 | 10 | 1013.9 | |
| 20260506043543 | 98 | 0.0 | 0.0 | 0.33 | 0.37 | 0.37 | 10 | 1013.9 | |
| 20260506042520 | 98 | 23 | 0.9 | 1.7 | 0.22 | 0.24 | 0.24 | 10 | 1014.0 |